Theta_e
305 305 305 305 305 305 306 305 305 305 304 299 297 299 296 293 292 305 305 307 309 303 294 295 297 296 297 302 302 303 301 299 300 298 300 298 299 298 297 298 297 298 298 301 301 302 297 298 297 300 300 303 305 307 306 306 306 302 298 302 302 324 291 287 290 293 296 301 303 304 306 304 301 301 302 300 298 296 292 288 292 288 292 287 286 283 287
305 305 305 305 305 305 305 305 305 305 304 299 299 294 294 295 295 299 307 313 311 300 288 286 285 296 302 303 303 306 304 303 303 300 301 298 297 297 299 299 300 297 299 301 298 303 290 299 300 297 302 301 305 307 307 309 305 305 301 299 304 292 293 291 283 281 285 291 298 298 301 301 297 298 300 303 302 302 300 298 294 287 292 291 286 284 286
304 304 305 304 305 305 305 305 305 305 305 304 298 294 295 295 299 298 303 313 313 301 298 295 293 298 298 300 300 301 304 306 305 304 303 304 300 299 297 299 299 299 303 298 300 306 297 296 302 302 303 302 306 306 309 312 309 318 314 318 306 298 295 287 282 282 281 282 283 287 291 295 297 301 302 303 301 300 295 290 288 284 290 292 283 283 290
304 304 304 304 304 305 305 305 305 305 305 304 299 297 296 295 288 295 299 303 305 305 305 305 301 297 298 295 298 302 300 304 306 306 304 305 305 301 300 303 305 303 302 298 298 300 301 298 298 297 297 300 305 306 312 315 315 323 329 316 306 299 298 291 287 285 284 287 290 296 298 297 294 298 299 300 301 299 297 291 284 285 289 290 290 293 295
304 304 304 304 304 305 305 305 305 305 305 305 300 299 298 298 293 290 287 296 297 296 298 299 299 295 302 291 301 299 300 302 304 307 301 306 304 303 302 304 301 300 301 297 296 300 295 297 298 297 301 302 305 308 309 311 322 328 316 320 303 295 289 297 296 295 295 296 299 302 301 296 297 296 296 299 300 298 294 287 289 292 290 286 291 297 295
304 304 304 304 304 305 305 305 305 305 304 304 302 299 301 291 296 299 299 292 286 288 290 299 299 302 302 298 304 300 299 300 298 304 306 306 306 300 300 304 304 304 302 300 293 298 296 300 297 303 303 303 305 303 307 306 313 318 308 310 302 294 289 300 297 298 299 299 300 300 300 300 299 298 297 298 300 298 297 293 295 293 286 288 293 297 296
303 304 304 304 304 305 305 305 305 305 304 304 302 298 300 299 298 298 302 291 296 297 299 301 301 299 301 299 302 299 300 298 301 301 301 303 303 305 291 301 303 303 303 301 296 298 290 291 299 300 300 301 301 299 302 306 307 305 304 306 304 296 293 300 299 297 298 298 298 299 300 299 299 300 299 299 300 298 297 298 299 296 293 295 297 297 299
303 303 303 304 304 305 305 305 305 305 304 304 303 302 296 294 293 291 298 299 297 298 299 300 299 296 302 292 300 302 301 299 301 303 301 294 301 306 301 302 303 303 302 300 297 299 300 300 296 302 301 298 301 299 302 299 303 305 304 307 304 298 289 301 298 292 296 299 299 300 300 299 298 300 301 301 299 297 297 297 298 299 298 299 297 297 298
303 303 303 303 304 305 305 305 305 305 304 301 302 303 303 301 301 299 295 292 295 300 299 298 296 292 294 294 299 301 301 300 301 302 305 303 301 303 301 303 303 304 301 300 300 302 304 304 303 304 303 296 303 299 300 303 300 302 302 304 305 299 293 300 294 285 290 297 298 299 298 298 298 299 300 301 299 294 300 296 303 295 296 297 298 298 298
302 303 303 303 304 305 305 305 305 304 303 298 297 298 302 301 301 302 298 289 300 295 299 298 294 287 296 301 302 301 301 303 302 294 302 305 306 305 304 305 301 301 299 299 300 303 304 304 305 306 305 306 304 303 304 303 302 300 301 304 302 301 295 290 289 285 287 295 300 298 293 289 289 294 299 301 300 303 304 306 306 305 299 290 288 297 304
302 302 303 303 304 304 305 305 305 304 301 295 294 295 298 299 297 296 295 288 290 295 295 294 293 296 301 302 301 303 302 302 302 294 291 304 304 307 306 305 300 297 298 302 306 306 307 307 308 307 306 305 304 303 302 304 302 302 304 300 298 302 296 291 293 288 287 295 298 292 285 281 286 300 306 305 302 304 302 302 304 306 307 303 305 307 308
302 302 302 303 303 304 304 305 305 305 303 297 297 295 298 301 298 295 290 286 288 295 295 293 294 295 293 294 296 296 297 301 302 305 299 301 304 306 305 304 302 290 304 307 306 306 309 309 308 305 305 306 305 303 303 301 302 301 302 300 299 298 295 290 290 285 289 291 289 284 280 282 299 305 308 310 308 307 304 305 306 308 308 308 307 308 308
301 302 302 302 303 304 304 304 305 304 305 300 297 294 298 301 298 294 292 290 285 291 291 293 298 295 294 294 294 296 298 303 305 305 304 302 302 304 306 304 302 304 306 304 305 305 302 300 300 300 302 303 303 302 301 303 304 304 303 302 301 295 290 287 289 283 286 285 285 281 279 294 304 305 306 308 307 304 303 301 306 308 308 308 307 308 309
301 301 302 302 303 303 304 304 304 305 305 303 296 295 298 300 296 292 291 285 287 291 297 293 291 291 293 293 294 296 298 299 302 303 300 306 303 303 305 307 306 308 305 305 304 301 292 290 286 289 294 295 294 294 300 305 306 305 305 305 300 302 296 290 288 289 285 285 283 283 296 300 300 300 301 300 298 299 297 291 302 308 310 309 307 308 310
301 301 301 302 302 303 304 304 304 305 305 305 297 297 298 299 299 295 294 291 286 289 292 286 291 291 293 294 294 292 293 294 295 294 301 307 304 307 307 307 308 306 304 302 297 298 293 289 285 284 287 287 284 287 298 297 305 306 305 305 304 302 298 292 291 288 284 284 285 286 286 284 291 300 303 303 305 305 306 302 300 309 310 310 308 306 309
301 301 301 302 302 303 304 304 304 305 305 305 298 296 299 301 300 298 295 290 285 284 290 298 299 294 292 293 294 294 291 290 291 293 293 298 303 304 305 306 306 305 304 303 301 294 288 288 286 284 285 286 292 293 288 297 299 305 304 304 304 300 298 296 292 287 286 285 284 282 282 284 294 296 298 300 303 304 305 303 297 306 310 309 307 305 306
300 301 301 302 302 303 303 304 304 305 305 305 297 297 297 303 302 298 293 292 291 284 295 301 299 295 288 288 293 293 295 289 293 288 285 291 298 301 302 305 305 305 303 298 298 292 289 287 292 289 290 296 291 287 296 294 290 291 300 301 299 297 293 287 287 284 283 283 283 284 286 286 294 296 297 300 303 304 301 289 289 304 310 307 306 305 306
300 301 301 302 302 303 303 304 304 304 305 306 300 295 297 301 303 301 295 293 289 287 294 301 297 289 288 290 291 297 298 295 294 293 291 295 297 298 299 301 300 306 306 293 291 284 286 285 285 286 286 297 301 296 286 293 287 289 292 293 291 289 284 286 284 284 283 282 285 289 293 296 296 296 298 302 303 300 289 286 292 306 307 307 306 306 307
300 300 301 302 302 303 303 304 304 304 305 305 301 298 299 302 304 301 295 292 292 287 295 301 301 297 296 299 298 300 299 297 295 288 284 288 294 299 300 301 304 293 302 291 290 287 287 286 294 291 287 291 298 287 296 288 288 295 296 290 286 287 287 285 283 284 285 284 283 285 288 295 297 298 300 302 300 289 286 298 307 309 305 307 306 307 308
300 300 301 301 302 303 303 304 304 304 305 306 302 294 297 301 303 302 296 292 292 291 295 295 300 296 298 295 293 292 294 293 294 290 288 285 294 298 290 287 293 297 294 294 286 291 286 285 289 294 288 292 294 298 289 295 299 295 295 295 288 289 283 283 285 289 288 283 282 283 284 290 298 298 296 299 288 291 300 303 308 305 304 305 306 307 308
300 300 301 301 302 303 303 304 304 304 305 306 304 296 298 302 304 305 302 298 291 287 288 297 301 298 299 297 296 296 297 294 294 291 293 293 297 290 282 285 291 294 289 289 287 286 289 285 289 292 296 293 294 294 287 287 293 301 301 296 295 297 285 286 289 294 284 283 283 282 289 293 299 297 289 296 298 301 303 304 301 304 304 304 305 306 310
300 300 301 301 302 303 303 304 304 304 305 305 305 297 296 301 303 306 306 301 294 286 287 295 300 300 302 303 303 302 299 300 301 300 295 291 293 294 293 296 295 296 298 297 290 292 293 296 295 289 289 291 294 286 290 283 285 292 300 294 285 294 291 288 286 294 287 285 289 294 295 298 300 300 300 300 302 302 303 303 304 304 304 306 305 304 306
300 300 301 301 302 303 303 304 304 304 305 306 303 295 294 297 300 303 301 296 297 298 300 300 302 304 307 309 310 305 301 302 304 304 300 293 285 290 294 293 293 300 301 299 293 292 296 293 286 294 289 293 289 289 292 287 286 292 288 299 292 301 301 300 297 294 299 300 300 302 302 302 302 303 303 302 302 303 303 303 302 305 307 307 305 305 306
299 300 301 301 302 303 303 304 304 304 305 306 304 295 294 297 298 300 297 296 294 287 288 292 295 289 294 298 300 300 301 302 303 301 303 299 289 285 291 296 299 299 296 297 300 296 294 294 298 299 289 297 295 286 284 286 288 293 291 292 295 299 301 297 294 297 291 288 301 302 301 301 300 301 304 305 305 303 303 303 303 305 306 306 306 305 306
300 300 301 302 302 303 303 304 304 304 305 305 304 302 300 298 299 298 294 286 286 285 286 286 289 299 302 300 298 296 298 302 307 302 302 301 296 292 292 296 299 297 295 298 299 293 285 293 293 293 288 298 296 288 293 288 290 294 286 290 290 294 303 297 297 296 292 293 299 302 302 299 300 298 298 298 300 302 304 304 304 304 305 306 306 305 304
300 300 301 302 302 303 303 304 304 304 304 305 305 297 295 295 298 300 297 295 293 291 286 284 294 303 300 300 296 299 301 299 302 302 303 302 301 299 298 300 299 303 301 301 300 293 288 286 287 290 288 290 298 289 290 293 293 295 291 292 295 296 301 288 294 290 294 297 300 301 299 297 297 298 298 298 298 299 301 301 302 303 304 305 306 305 305
300 300 301 302 302 303 304 304 304 304 305 305 302 298 297 299 300 299 295 293 290 287 286 285 292 299 303 301 304 299 301 299 298 297 298 299 300 303 302 299 297 297 298 294 293 289 284 285 287 291 293 294 297 296 296 295 294 290 288 295 298 296 292 294 294 288 285 286 291 294 287 288 294 296 298 299 300 300 301 301 302 302 303 303 304 305 305
300 301 301 302 302 303 304 304 304 305 305 305 303 300 299 298 300 302 300 297 294 286 285 283 289 295 301 300 304 297 297 300 297 297 296 297 298 300 299 297 297 296 295 291 288 286 284 284 288 291 295 296 292 292 297 295 292 291 292 294 296 293 294 289 284 285 287 294 297 297 293 293 294 296 299 300 301 301 301 301 302 303 303 304 304 305 305
300 301 301 302 302 303 304 304 304 305 305 305 298 298 297 299 301 302 302 302 298 294 289 288 292 294 288 294 300 296 298 299 296 294 296 297 298 297 298 298 298 297 298 289 286 285 287 286 289 291 292 297 293 291 290 286 282 285 291 296 297 298 299 297 295 295 296 298 297 297 294 294 298 300 301 302 303 302 302 303 303 304 305 305 304 304 304
301 301 301 302 303 303 304 304 305 305 305 298 297 295 290 296 299 299 301 303 299 298 289 286 283 288 296 297 295 295 298 299 298 298 297 294 295 295 296 296 295 300 299 293 288 287 287 287 287 294 299 301 294 292 288 288 286 291 297 297 297 297 298 298 299 297 296 300 300 300 300 300 301 302 302 303 304 304 301 301 304 305 305 305 302 301 300
301 301 302 302 303 303 304 304 305 305 305 296 293 285 286 285 295 301 302 301 300 299 288 288 287 292 292 295 295 294 295 296 298 299 300 298 296 295 296 298 296 297 288 287 287 287 287 286 288 294 296 295 289 289 289 287 286 290 297 297 297 297 299 300 300 301 300 300 300 301 300 300 302 300 297 296 296 297 297 298 302 309 305 301 300 299 299
301 302 302 303 303 303 304 304 305 305 298 296 292 290 290 292 296 300 301 302 302 298 289 287 283 283 284 290 296 298 297 298 301 301 298 300 296 297 296 296 297 299 291 287 286 286 285 289 291 291 293 296 292 290 291 288 287 290 297 297 298 298 298 297 297 299 300 300 299 298 295 295 296 295 293 294 296 296 296 296 297 298 304 301 300 299 299
301 302 303 303 303 304 304 305 305 303 295 299 305 305 305 305 305 304 302 299 300 294 294 285 284 284 283 288 296 296 297 296 295 298 296 298 299 297 292 298 298 294 302 289 285 286 289 291 291 289 294 295 289 289 290 288 291 296 297 298 297 297 296 297 296 296 296 296 296 292 290 291 292 294 294 295 295 296 296 296 296 296 297 297 297 297 297
302 302 303 303 304 304 304 304 305 305 305 298 294 297 300 306 305 306 300 299 296 295 292 286 284 283 284 291 291 292 297 291 292 294 289 295 299 294 292 295 293 288 292 290 289 288 288 289 286 290 291 293 291 289 286 292 296 296 296 295 296 296 296 296 296 296 296 295 295 295 294 294 295 295 295 294 294 294 296 295 295 295 294 294 295 296 296
302 302 303 304 304 305 305 304 296 297 294 294 295 298 300 306 305 305 302 298 294 287 286 286 286 283 282 283 283 287 296 293 290 292 291 290 298 295 293 286 286 285 288 293 285 289 286 289 291 283 285 288 284 285 287 292 294 295 295 295 294 295 294 294 294 295 295 295 295 295 295 295 294 293 293 293 293 293 293 293 293 293 292 292 293 293 294
302 303 304 305 305 304 298 301 296 295 294 294 296 306 308 307 306 299 298 301 300 292 287 289 286 283 285 281 281 287 296 290 294 293 294 292 289 293 292 285 285 287 294 291 286 289 287 294 288 285 286 284 284 286 291 295 293 294 294 294 294 295 294 294 294 294 295 296 296 296 295 294 293 292 292 293 293 293 293 292 292 291 291 291 292 292 292
303 304 305 305 301 296 292 293 298 297 294 297 300 305 306 305 304 303 300 298 301 302 293 290 282 284 287 286 286 289 291 283 289 287 288 286 285 285 285 282 284 285 284 280 283 285 291 293 285 284 282 283 287 292 294 295 295 294 294 295 296 295 295 294 295 294 293 294 295 293 292 292 292 292 292 292 292 292 292 292 292 292 291 292 292 293 292
304 304 294 294 292 285 286 288 294 297 301 303 305 298 297 298 288 288 289 286 295 301 290 289 283 287 287 285 282 292 289 284 288 286 283 287 285 284 286 284 285 285 282 284 286 295 289 285 282 283 287 290 292 294 295 296 296 297 296 296 295 295 295 295 295 294 292 291 291 291 292 291 291 291 291 291 292 292 292 292 293 293 293 294 293 294 293
302 296 293 293 289 285 287 292 299 303 298 300 297 287 284 285 283 282 282 285 285 283 286 286 285 287 285 284 286 291 291 287 283 283 283 290 284 281 284 282 285 284 281 282 285 290 283 282 283 283 285 290 290 292 295 296 296 296 296 295 296 295 296 295 296 295 293 292 291 292 291 291 290 291 292 292 292 292 292 292 292 293 293 293 292 293 293
294 292 288 287 287 287 293 299 304 300 296 287 288 283 282 283 283 281 284 282 281 283 285 282 289 288 289 286 285 285 291 285 280 281 284 283 289 283 284 283 284 282 279 280 283 288 283 281 282 281 285 289 290 294 294 295 295 294 295 295 295 295 296 296 295 295 294 294 294 294 293 294 294 293 293 293 293 291 292 292 293 293 292 292 294 292 292
295 294 292 286 291 294 296 297 297 294 286 282 282 282 281 281 282 283 282 279 281 284 288 286 285 284 287 287 285 285 290 293 290 289 286 282 288 286 281 280 284 280 278 279 283 284 282 280 279 280 284 290 290 293 294 294 294 294 295 295 295 295 296 296 296 296 296 295 295 294 294 294 293 293 294 294 293 292 292 292 293 293 292 292 292 292 293
293 293 294 295 295 297 294 291 286 283 282 284 279 278 280 281 282 282 281 279 280 282 283 285 283 284 284 288 288 288 286 292 290 285 284 281 284 282 281 281 282 279 278 281 286 282 281 278 278 282 288 291 293 293 294 293 294 294 294 295 295 295 296 296 295 295 296 295 294 294 294 293 293 293 293 293 293 293 293 292 293 292 292 292 292 292 293
303 301 297 295 291 286 285 282 283 282 278 278 276 277 279 278 280 280 281 283 286 284 285 291 289 289 289 291 287 289 288 292 286 284 282 281 284 282 279 279 278 276 280 284 282 278 278 277 279 283 287 291 292 293 293 294 293 294 294 294 294 295 296 295 295 295 295 295 295 294 294 294 293 294 295 294 293 292 292 292 292 292 292 292 292 292 292
298 298 289 283 282 283 284 278 283 282 279 280 278 276 277 277 280 280 277 279 282 283 285 284 284 284 282 287 287 285 285 287 287 283 282 282 282 280 279 277 278 282 284 279 277 277 278 279 281 285 289 292 294 292 292 293 293 293 293 293 294 294 295 294 294 294 294 294 294 294 293 292 292 294 294 293 293 292 292 292 292 292 291 291 291 291 292
285 281 281 279 277 280 281 275 280 279 277 278 281 280 279 277 278 278 279 284 284 283 285 286 286 285 284 287 287 286 286 283 284 282 280 282 279 281 278 278 280 280 278 276 276 275 277 279 283 288 290 290 291 291 292 291 292 292 292 292 293 293 293 292 292 292 292 292 293 292 291 291 292 291 292 292 292 292 291 292 293 292 292 291 291 291 292
282 280 278 276 276 278 279 276 276 276 280 281 280 281 279 281 280 282 286 286 284 285 286 286 286 286 283 285 283 283 283 282 280 281 282 281 278 278 282 282 280 276 274 274 273 274 278 280 283 287 289 289 290 291 291 291 292 292 292 291 290 291 291 290 291 291 291 291 291 290 291 290 291 291 291 291 291 292 291 292 291 292 291 290 291 291 293
282 283 282 279 277 278 281 278 279 281 282 282 283 283 283 285 285 285 287 286 285 287 287 287 286 286 283 284 282 282 282 282 280 282 281 278 278 280 282 279 275 275 273 272 272 275 279 280 285 288 289 290 290 290 290 290 291 291 291 290 290 290 290 290 291 290 290 290 290 291 291 291 291 291 290 290 291 291 291 291 292 291 291 292 292 292 292
280 282 281 276 276 279 279 281 283 283 282 284 285 284 286 286 285 285 287 288 287 287 286 285 283 283 282 284 283 282 282 281 279 280 281 281 280 278 276 275 275 277 276 275 276 279 281 283 286 288 290 290 291 291 292 291 291 290 290 289 289 290 290 290 289 290 290 290 290 290 290 290 291 290 290 290 289 291 291 291 292 292 292 291 292 291 291
284 282 281 279 281 282 282 284 283 282 284 286 287 287 286 287 285 286 287 287 286 287 288 286 283 282 280 282 281 280 279 281 278 279 281 278 275 274 275 273 273 272 277 280 280 281 283 286 288 290 290 291 291 291 290 290 290 289 290 290 290 290 291 290 290 290 290 291 290 290 290 291 291 291 290 290 290 291 291 291 292 291 291 291 291 291 291
283 282 283 281 281 282 283 284 284 281 282 283 283 284 285 285 285 287 288 287 287 287 286 286 286 282 282 281 278 279 279 280 280 280 277 275 276 277 275 272 274 274 277 280 281 284 286 287 288 289 289 289 290 291 290 291 291 293 291 291 291 291 291 290 290 291 291 291 291 291 291 290 291 291 291 291 291 291 291 291 291 291 291 291 292 292 292
284 283 284 285 282 281 280 280 279 279 280 282 283 284 285 285 285 285 288 288 287 284 281 281 282 281 280 277 277 274 278 281 279 278 277 277 279 276 274 274 277 279 282 283 285 286 286 287 288 288 289 290 291 292 292 293 293 293 293 293 292 291 291 291 291 292 291 292 291 289 291 291 292 292 292 291 291 291 291 292 292 291 291 292 293 293 292
281 281 282 285 284 285 284 283 283 283 283 284 285 286 286 285 286 287 289 286 284 282 280 282 281 279 276 275 277 280 281 279 278 276 274 277 279 275 276 277 280 282 284 285 285 286 287 289 289 289 288 289 291 291 293 294 294 294 293 293 293 292 292 291 292 292 292 292 292 292 292 292 292 292 291 291 291 291 290 290 291 291 292 293 293 292 293
Wind_Speed
10 11 12 14 15 16 16 18 18 18 20 6 7 4 3 3 3 8 11 5 2 3 0 1 1 2 4 4 7 8 7 5 4 6 5 5 4 4 4 2 3 4 3 1 0 0 0 1 1 1 1 2 5 4 5 5 10 3 2 2 1 6 2 2 4 6 3 3 2 6 8 4 7 6 3 2 1 1 7 6 6 6 0 2 1 1 4
9 11 12 13 15 15 15 16 16 16 16 5 6 2 1 2 3 7 6 1 4 3 0 2 3 4 5 4 7 7 7 4 4 3 5 3 3 3 2 3 0 3 7 2 2 1 1 2 0 2 0 1 5 1 3 10 3 1 1 1 3 1 2 3 1 3 4 6 7 7 6 7 3 1 2 1 3 5 3 5 2 5 1 5 6 3 2
9 10 12 13 14 15 15 15 16 14 12 7 2 2 2 4 3 4 7 5 1 0 3 1 1 3 4 4 8 9 3 4 6 6 7 4 4 4 3 2 3 3 7 4 4 1 3 0 2 1 0 1 2 10 6 7 5 3 4 4 1 6 2 3 2 1 2 1 2 2 2 1 0 1 3 3 4 1 1 1 2 3 1 4 1 2 6
9 10 11 12 13 14 15 15 15 14 11 10 0 1 1 3 2 5 5 6 5 1 4 2 3 2 3 6 4 5 7 6 6 6 4 4 8 4 2 5 4 8 6 6 2 0 1 2 1 3 2 2 3 3 3 8 3 2 7 4 4 1 1 4 5 4 5 3 3 3 2 2 3 5 1 1 3 6 6 5 3 4 3 2 3 4 1
9 9 11 12 13 14 15 16 16 15 13 8 2 1 2 1 2 2 5 6 4 3 2 5 5 4 3 1 2 4 6 7 4 5 2 7 5 4 6 9 10 6 6 4 3 9 3 7 8 7 4 3 3 7 7 8 9 7 4 6 4 3 4 3 3 2 2 3 0 1 3 1 0 3 4 5 4 3 5 2 3 4 8 1 2 2 2
8 9 10 12 13 14 15 17 17 18 16 5 3 2 1 2 1 2 1 2 3 6 5 7 8 9 4 2 1 3 6 7 5 4 4 8 6 6 4 11 10 10 4 3 6 9 4 7 4 8 8 4 9 5 5 5 8 5 2 3 4 4 2 2 3 1 1 1 3 4 3 1 3 3 5 2 2 1 1 2 3 5 3 6 2 3 4
8 9 10 11 13 14 15 17 19 20 20 1 4 1 3 1 1 1 3 2 1 3 7 8 6 9 5 2 3 3 3 5 4 3 5 6 7 10 4 9 10 9 8 5 3 6 4 6 3 4 6 4 5 5 5 4 8 6 2 4 1 4 1 0 1 1 3 4 6 5 6 2 4 6 5 1 3 2 2 1 2 4 3 6 7 6 8
7 9 10 11 13 14 16 18 20 21 20 1 1 1 1 2 1 4 4 2 3 3 3 4 6 6 5 2 2 2 2 4 6 4 4 3 5 8 8 7 6 7 9 6 5 2 3 0 2 4 3 8 3 2 2 2 7 7 4 2 4 3 1 4 1 3 4 4 5 8 6 7 5 6 8 9 6 4 4 4 4 1 5 3 5 9 5
7 8 10 11 12 14 16 18 19 21 17 2 2 2 2 2 0 1 1 4 4 3 3 5 5 3 5 3 3 3 4 6 5 3 1 5 4 6 7 5 2 4 8 9 7 4 1 2 3 5 1 1 2 2 3 3 4 5 5 3 3 5 0 2 3 3 3 4 7 3 4 8 8 7 10 11 9 5 5 6 5 2 1 2 8 7 4
7 9 10 11 12 13 15 17 19 20 15 3 1 2 3 2 2 0 1 0 2 4 4 4 3 2 2 1 2 0 4 3 4 3 4 5 5 7 6 4 2 2 7 7 6 9 6 5 7 6 6 5 4 3 4 3 1 3 2 1 1 1 3 2 2 5 2 4 1 2 2 4 4 7 8 7 1 6 5 9 13 10 1 6 3 0 2
7 8 10 10 11 13 14 15 16 18 9 5 3 2 3 5 4 5 3 1 5 4 5 4 5 3 6 8 4 3 3 5 4 3 3 4 7 9 7 5 3 1 5 3 6 5 9 10 8 4 4 5 5 4 5 8 3 2 0 2 1 1 3 2 3 4 3 5 3 2 4 1 0 3 7 1 3 9 14 10 10 13 10 4 2 1 4
7 8 9 10 11 12 13 14 15 16 10 2 1 2 3 2 1 1 2 3 3 3 3 2 3 4 6 9 8 7 9 4 2 0 2 2 4 6 7 6 4 3 3 4 4 5 7 5 4 3 1 1 0 2 4 4 9 4 3 3 2 1 1 1 2 4 2 1 2 4 0 2 4 1 6 10 16 16 16 14 14 13 10 8 6 6 8
7 8 9 9 10 12 12 13 13 12 11 4 1 1 2 0 1 0 1 2 1 3 5 5 5 5 5 10 10 8 8 2 1 1 1 1 3 4 2 2 3 4 4 6 7 4 2 2 4 2 4 6 4 4 6 8 4 5 5 1 3 3 4 2 1 2 2 2 2 0 2 2 2 2 5 5 4 4 4 12 14 12 13 9 7 7 8
7 7 8 9 10 11 12 13 13 12 13 7 1 2 2 0 2 2 1 2 3 2 1 5 7 8 9 7 5 8 5 8 7 2 4 1 3 4 4 3 5 8 6 4 2 2 3 5 1 5 4 5 4 5 0 7 6 9 9 8 1 5 3 5 0 0 3 2 3 2 1 1 2 3 4 6 3 5 3 3 8 10 8 10 9 9 9
6 7 8 9 10 10 11 12 12 13 13 12 2 3 3 2 1 1 0 2 1 4 1 2 6 4 4 4 4 7 5 5 7 6 5 1 1 2 2 6 8 9 7 4 3 3 1 1 2 2 3 3 0 2 2 1 1 4 5 5 5 4 8 4 4 3 5 5 2 2 1 3 4 1 5 3 3 4 3 7 2 8 8 7 7 9 10
6 7 8 8 9 10 11 12 12 13 13 13 1 3 5 3 2 1 1 2 2 3 3 3 4 3 2 1 3 2 4 4 5 3 6 5 3 7 4 8 8 6 6 3 0 2 1 1 1 2 0 1 2 1 1 2 1 3 4 5 7 8 5 4 8 4 3 2 5 4 5 4 3 5 8 10 6 3 3 3 5 6 8 7 5 8 10
6 7 7 8 9 10 10 11 12 12 12 13 5 4 3 1 3 1 1 2 1 3 5 6 5 2 5 5 7 6 4 2 4 3 3 5 4 5 9 11 6 5 7 3 2 1 2 1 0 1 2 1 0 1 1 2 2 5 11 6 10 9 5 4 4 2 2 5 4 3 1 1 2 7 9 11 10 5 3 1 2 6 7 6 6 8 9
6 7 8 8 9 9 10 11 12 11 12 11 5 2 4 3 0 1 2 1 1 3 3 3 7 4 4 2 0 3 1 3 5 2 1 3 2 4 6 6 7 6 4 3 3 3 1 1 1 1 3 1 0 1 1 0 1 1 2 2 4 5 4 6 4 3 2 6 1 2 0 2 2 6 10 11 6 3 5 6 1 4 5 4 4 6 7
6 7 7 8 8 9 9 10 11 12 11 11 7 1 3 2 3 2 3 1 2 2 6 7 3 1 2 2 0 0 1 2 1 1 4 6 2 6 6 5 1 4 6 2 4 1 0 2 1 1 1 3 3 2 0 3 1 1 2 4 4 3 1 3 2 5 2 1 6 2 2 3 3 8 8 8 2 0 6 2 2 4 4 4 5 6 6
6 7 8 8 8 9 9 10 11 11 12 12 6 1 5 5 4 1 2 0 0 2 6 4 3 4 3 2 4 4 6 6 2 3 1 1 6 8 6 3 6 3 6 3 5 2 2 1 1 1 2 0 1 2 4 1 1 0 0 2 3 1 2 1 1 0 1 3 4 2 1 1 6 10 3 4 5 3 3 2 2 4 4 5 5 4 5
7 7 8 8 9 9 9 10 10 10 11 11 7 1 4 2 4 1 2 1 1 1 6 4 1 3 2 3 5 3 1 1 0 1 3 4 4 2 2 1 4 2 1 1 2 2 2 3 5 1 1 2 1 1 4 2 1 2 1 1 2 2 2 0 1 2 2 1 2 2 1 3 9 4 5 2 2 1 1 1 1 2 2 4 4 6 6
7 7 8 8 9 9 9 10 10 10 10 11 8 1 0 4 4 2 2 1 2 5 6 5 2 5 8 8 8 7 5 2 3 3 0 2 4 1 1 1 2 1 0 0 3 1 3 1 2 3 2 2 3 2 1 3 1 3 3 3 2 1 1 2 3 3 1 2 4 4 3 2 4 4 4 2 3 4 2 3 2 2 3 2 2 4 6
7 8 8 9 9 9 10 10 10 9 9 8 5 1 1 4 6 4 3 0 2 2 3 3 3 4 4 7 8 9 8 3 3 1 3 2 3 3 1 3 3 1 0 1 1 4 4 2 1 3 3 0 2 2 3 2 2 1 1 2 2 1 5 5 7 3 5 6 3 3 1 0 1 2 1 2 1 2 2 1 2 0 1 2 1 2 2
7 8 9 9 9 9 10 10 10 9 8 7 2 0 1 3 4 5 4 1 2 3 4 2 2 1 1 2 5 4 1 1 2 2 2 4 1 4 3 1 1 1 1 2 3 1 2 2 3 2 2 5 2 1 3 3 1 0 3 1 2 1 2 3 6 3 3 2 2 0 0 0 1 1 0 0 0 1 2 0 1 2 3 4 4 3 4
8 8 9 9 9 10 10 10 10 9 7 7 4 3 2 3 1 3 2 1 4 3 1 6 2 7 6 5 1 1 2 3 1 2 1 3 3 1 1 4 2 1 5 5 1 2 2 1 0 0 1 2 3 1 1 6 1 2 3 1 1 3 1 7 3 2 3 3 2 1 1 0 1 2 1 0 1 2 3 3 3 3 3 3 4 4 4
8 9 9 9 9 10 9 9 10 9 8 7 4 1 1 3 3 3 1 1 1 1 0 1 6 6 4 5 2 1 2 1 0 0 1 2 2 4 3 3 3 1 2 2 1 1 1 0 0 0 2 1 1 2 2 1 5 2 6 1 1 3 1 3 2 4 3 5 3 2 2 2 2 3 3 3 3 2 3 3 3 3 3 3 3 3 3
9 9 9 9 10 9 9 9 9 9 9 7 2 1 2 4 3 1 0 1 1 1 2 1 5 7 6 7 5 2 2 2 2 3 4 4 2 0 1 1 3 5 4 4 2 2 2 1 1 0 0 0 1 2 3 4 3 3 2 3 3 6 3 1 5 6 2 3 3 3 4 1 1 2 3 3 4 3 3 3 4 4 3 3 4 5 4
9 9 10 10 10 9 9 9 9 9 9 7 3 3 3 2 3 1 2 1 1 2 1 2 3 7 6 4 5 4 3 2 3 4 4 4 4 1 2 4 1 2 3 3 5 5 1 4 2 1 1 1 4 3 2 2 4 5 5 3 1 5 3 4 3 5 3 2 5 4 4 4 3 3 2 4 3 3 2 3 3 4 3 2 2 4 7
10 10 10 10 10 9 9 9 8 8 9 6 2 2 1 2 3 2 2 1 2 2 1 2 3 3 1 2 3 2 3 2 3 4 2 1 2 3 3 3 2 1 1 2 2 1 1 2 1 2 1 2 5 0 4 3 3 3 1 1 3 1 2 6 5 5 2 1 4 6 3 3 2 4 2 1 1 1 3 4 3 2 3 3 4 4 5
10 11 11 10 10 9 8 8 8 7 7 3 2 4 3 1 1 1 5 1 1 2 1 1 2 2 3 2 3 2 0 3 3 2 3 4 4 4 5 2 4 0 0 0 0 1 1 1 3 1 0 0 2 2 3 1 3 1 1 2 4 5 5 3 3 5 4 3 4 4 5 5 4 3 1 4 6 5 6 7 8 10 10 7 7 6 6
11 11 11 11 10 9 8 7 6 6 4 1 2 2 1 0 1 0 4 3 1 2 1 1 3 4 4 2 1 2 4 2 1 1 3 4 5 4 3 1 2 2 1 1 2 0 1 2 1 1 1 2 3 2 4 4 3 1 0 3 5 6 6 6 5 5 5 4 4 4 5 6 4 6 11 7 7 8 9 8 9 9 8 7 8 6 7
12 12 12 11 10 9 8 6 4 3 0 1 2 1 2 2 1 1 4 3 1 2 1 1 2 2 1 3 2 1 1 3 1 0 1 0 3 1 3 1 1 0 2 1 1 1 1 1 0 1 1 1 5 2 3 4 6 3 2 3 4 5 6 6 5 3 3 5 7 10 11 9 8 8 3 4 7 7 8 7 6 6 7 6 5 7 7
12 12 12 11 10 9 9 7 5 2 2 6 8 10 11 12 12 9 4 1 1 1 1 1 0 1 0 2 2 4 4 3 4 2 1 0 1 0 1 2 1 1 0 4 1 0 1 0 1 3 1 1 4 2 3 3 4 4 4 4 6 7 7 6 7 8 8 5 5 9 5 5 4 4 4 6 7 8 7 7 5 7 8 9 9 9 9
13 12 11 11 9 9 8 8 8 8 4 1 2 1 3 8 6 7 2 0 1 0 1 1 1 2 3 5 3 3 3 2 3 2 0 2 1 1 1 2 3 1 3 2 1 1 3 2 1 0 2 3 3 5 2 1 3 4 5 8 8 8 9 11 10 10 7 6 5 6 6 5 4 6 8 8 7 5 6 6 8 10 8 8 8 7 6
12 12 11 10 9 8 10 7 2 1 0 1 2 4 0 7 8 6 6 2 1 1 0 1 1 2 4 3 1 4 3 2 4 2 0 3 1 0 1 2 4 4 3 1 2 1 0 0 3 4 0 1 3 2 1 4 3 4 5 5 4 6 7 8 6 6 5 4 4 3 2 5 8 7 6 6 6 6 6 5 5 6 6 4 4 4 4
12 11 10 9 7 5 2 1 1 1 1 1 2 5 8 7 6 3 3 1 0 1 1 1 1 1 0 1 2 2 3 1 2 2 1 1 4 3 3 2 3 2 1 1 1 2 0 1 3 1 3 3 1 2 6 8 7 6 6 3 2 5 5 8 6 5 6 7 8 7 8 8 8 5 5 5 6 7 6 6 6 4 4 4 4 3 4
11 10 8 6 2 1 1 2 1 2 1 3 4 3 6 4 1 2 1 1 1 1 1 0 4 3 1 1 1 3 2 3 5 4 6 4 1 3 4 3 2 2 3 3 3 3 3 1 5 2 2 2 0 1 7 8 8 7 7 7 6 6 6 5 5 7 8 8 9 7 7 7 6 6 7 6 5 4 6 6 4 3 4 3 4 4 4
9 5 0 1 1 1 1 1 1 1 1 6 5 2 2 1 0 1 1 1 1 1 1 1 3 3 3 5 3 5 2 2 2 2 2 1 1 2 1 2 1 1 2 0 2 1 1 3 1 3 1 2 3 5 8 7 7 7 7 6 7 7 6 6 7 9 9 10 9 7 7 7 5 4 4 5 4 5 3 2 3 2 2 2 4 3 4
3 1 1 0 1 0 1 0 2 2 0 1 2 1 1 0 1 2 1 0 0 2 1 4 2 1 3 3 1 2 2 0 3 3 3 3 2 2 2 2 3 2 1 2 2 4 1 3 2 3 2 1 3 3 4 8 6 5 6 5 5 5 7 7 8 11 10 8 6 5 5 5 4 4 2 3 4 3 3 4 4 4 3 4 4 4 4
1 1 1 0 1 1 5 4 3 2 2 1 2 2 0 1 3 0 1 2 2 1 1 3 1 0 1 2 1 3 2 3 3 3 1 3 1 1 2 1 1 2 0 1 2 3 1 0 1 3 1 1 3 0 3 7 7 4 5 5 6 6 7 8 7 6 8 6 5 5 4 4 3 3 3 3 4 4 5 5 4 4 4 5 4 5 5
0 0 1 1 2 2 3 1 2 2 2 2 1 2 1 2 1 1 1 1 1 0 0 0 3 5 3 3 2 2 4 2 0 1 2 1 2 2 3 1 1 1 1 1 3 2 1 2 2 2 2 2 5 4 6 6 6 4 4 5 6 6 8 8 7 6 7 7 5 5 4 4 4 3 1 1 2 2 3 3 4 4 4 5 5 6 5
1 0 1 1 2 3 2 3 2 1 1 0 2 0 0 1 1 2 0 2 0 0 4 1 3 2 3 2 2 1 2 0 1 2 1 1 2 1 0 1 2 2 0 2 1 1 2 1 1 1 1 0 0 3 7 7 5 5 5 6 6 6 7 7 7 5 6 6 5 4 4 5 5 5 4 4 4 4 4 4 5 5 5 5 4 4 5
4 2 2 0 1 1 1 2 2 1 1 2 2 2 1 1 0 2 1 1 1 2 3 1 1 2 3 2 2 1 1 0 1 2 2 0 2 2 1 1 1 2 2 3 2 1 3 1 0 1 1 2 3 5 5 5 5 5 5 5 5 5 6 5 5 5 4 5 5 5 5 6 6 6 5 4 4 4 4 3 4 4 5 4 4 4 5
2 1 1 2 2 1 1 1 1 2 2 1 1 1 0 2 4 4 2 2 1 2 1 3 3 5 3 3 0 2 3 3 2 1 1 1 2 1 1 1 0 4 1 2 2 2 1 0 1 2 1 2 4 5 5 4 4 5 6 6 7 8 8 8 7 7 6 5 5 4 4 4 4 4 4 4 3 4 5 5 5 4 5 4 5 5 6
2 2 2 1 1 1 2 2 2 2 2 1 1 1 2 5 1 1 2 1 2 1 3 2 4 3 2 4 2 1 1 1 2 2 1 0 2 1 2 1 1 1 2 0 1 2 2 2 4 1 2 4 4 4 4 5 6 7 6 5 7 7 7 6 4 4 3 3 2 2 4 4 4 5 5 5 5 4 4 5 5 5 5 5 5 5 6
1 2 1 3 3 2 1 1 0 2 1 1 1 2 4 3 4 3 0 1 2 3 6 4 3 3 3 2 2 1 1 1 2 0 0 1 2 1 1 0 1 2 2 2 1 1 1 2 2 1 3 4 4 5 5 5 4 5 8 7 5 5 5 4 4 3 3 4 4 4 5 5 5 5 7 6 5 5 5 5 5 5 5 4 5 5 6
1 1 1 1 2 1 1 2 0 1 3 1 2 5 7 6 3 2 1 2 4 1 1 1 1 0 1 3 3 4 2 1 1 2 2 2 0 1 1 3 1 0 1 1 1 1 3 5 3 3 2 2 2 3 4 5 6 7 6 5 5 4 3 3 2 2 3 4 5 7 6 6 6 6 5 5 6 5 6 5 6 6 4 5 6 6 5
1 1 1 2 1 0 3 0 1 2 3 4 4 4 3 2 5 5 5 1 1 2 5 3 4 5 4 3 2 0 1 1 1 2 0 1 1 2 2 2 1 0 0 1 4 5 7 8 6 8 6 5 4 5 6 5 4 4 4 4 4 4 3 3 4 4 5 5 5 5 5 5 6 5 5 5 5 7 6 5 6 5 5 5 5 6 6
1 1 1 1 0 1 1 0 6 7 6 7 7 6 6 8 5 2 4 1 3 3 1 1 1 1 1 2 1 2 2 1 2 1 1 2 2 1 0 0 0 3 4 3 3 4 5 4 4 6 8 8 6 5 4 3 3 4 4 3 2 1 1 2 2 2 2 2 2 3 4 4 5 5 6 5 5 7 6 5 5 5 5 5 5 5 6
2 2 3 2 4 4 1 4 10 6 4 4 5 3 3 5 4 2 1 2 3 3 4 3 2 2 1 1 1 1 0 2 0 1 2 1 0 0 2 2 3 2 2 4 3 4 5 6 7 8 7 6 6 5 4 3 4 3 4 3 4 5 4 3 3 3 3 2 3 4 4 4 5 6 6 6 6 5 4 5 5 4 5 4 4 5 5
1 3 0 0 5 1 2 4 4 4 6 5 4 2 2 2 1 3 3 1 3 5 5 2 1 1 1 2 1 1 0 1 2 1 1 0 1 3 4 3 0 2 2 4 4 4 3 4 6 6 7 7 8 8 7 6 5 6 5 4 4 4 4 4 5 6 6 5 5 5 5 4 4 4 5 4 4 4 5 5 6 5 4 4 5 4 4
2 3 2 3 4 7 6 5 5 7 6 4 6 3 3 4 2 3 2 5 5 7 2 2 2 1 2 2 0 1 2 2 0 1 3 2 2 3 2 3 2 1 3 5 6 6 6 7 6 5 4 5 5 6 6 7 6 6 7 6 5 6 5 5 5 5 5 5 6 5 5 5 4 4 4 4 5 5 6 5 6 5 4 4 4 4 4
Wind_Direction
351 347 337 333 333 334 341 345 348 356 357 15 345 322 18 31 233 267 297 318 100 69 15 288 13 234 232 250 255 250 252 252 279 288 284 295 242 260 231 226 337 274 271 270 331 160 292 170 181 204 165 225 210 242 360 45 37 82 332 23 293 79 63 36 294 306 301 358 19 22 9 50 35 3 37 70 82 174 165 174 184 125 263 43 16 100 257
352 345 337 334 333 336 342 345 348 356 14 6 308 30 26 288 286 315 297 270 127 83 78 306 291 271 293 294 294 287 275 271 289 276 305 281 296 292 311 326 164 272 302 236 264 194 21 294 71 334 159 282 240 235 67 80 56 40 280 104 261 78 306 116 33 358 337 349 356 2 342 32 67 330 327 87 80 78 102 101 62 80 228 170 116 184 274
350 343 337 335 336 337 342 344 344 355 359 10 20 23 294 287 256 237 292 345 77 218 195 164 257 306 300 327 325 339 333 341 323 315 299 309 281 280 258 242 312 12 345 294 230 200 151 307 296 161 285 252 335 20 32 88 107 93 202 191 95 86 178 93 108 119 99 28 16 314 336 249 258 295 321 41 96 87 30 49 1 88 268 89 107 214 251
349 342 337 337 338 340 342 342 343 345 350 358 151 269 6 11 30 303 336 358 5 19 336 2 345 310 338 354 297 320 329 321 313 311 290 15 340 334 327 5 58 24 359 11 340 32 136 137 297 17 326 330 14 8 16 56 85 82 62 62 83 116 56 99 151 146 174 202 214 253 140 57 63 295 250 159 88 70 95 105 79 158 183 138 228 166 35
348 341 340 341 342 343 343 343 342 340 343 356 143 285 153 279 72 355 337 332 26 338 307 359 13 333 296 342 297 327 332 314 306 356 321 349 355 341 44 24 34 341 31 352 8 347 352 26 56 1 10 299 295 36 41 18 11 6 55 348 79 57 47 327 110 131 188 187 204 240 164 114 227 167 301 352 14 97 103 136 219 169 85 332 269 224 80
348 345 344 345 347 347 347 347 343 339 340 355 176 33 220 39 288 88 215 157 285 9 324 353 324 313 322 257 283 323 347 349 342 322 45 335 3 8 338 38 34 37 44 74 45 344 42 32 18 327 11 341 336 13 2 64 341 353 22 12 109 132 92 304 102 88 155 163 91 68 68 94 149 136 118 94 304 5 149 226 196 129 129 193 239 154 69
351 348 349 350 351 351 354 353 347 343 342 359 176 53 292 135 273 291 340 64 267 201 259 301 310 313 310 277 23 346 355 347 335 329 335 13 3 9 39 25 31 33 29 63 78 20 50 348 315 18 333 17 332 12 344 342 18 23 25 18 99 85 115 256 127 107 359 23 46 45 72 37 48 32 354 311 155 231 208 197 143 161 185 198 152 116 85
352 353 353 355 354 356 0 360 356 349 346 46 145 101 93 13 41 308 343 286 287 279 309 324 340 338 322 32 295 310 325 331 337 340 22 15 347 3 35 10 40 41 36 40 65 26 130 190 321 298 32 339 27 333 139 300 335 16 5 16 347 102 266 226 60 63 336 321 55 39 53 72 61 3 22 18 347 80 48 51 15 47 74 49 90 89 42
356 356 359 359 359 2 5 6 4 354 350 88 5 79 54 285 236 191 330 346 284 310 351 338 325 335 323 51 289 355 324 351 346 297 29 69 7 1 356 339 11 34 41 21 9 346 278 258 263 270 284 286 262 44 285 38 340 356 355 26 330 67 217 42 56 71 322 321 39 20 67 78 62 21 8 358 3 41 359 50 337 4 64 42 65 41 356
358 0 2 1 4 7 10 12 10 4 351 98 18 35 311 305 284 324 156 329 326 7 316 313 22 9 250 247 286 352 328 14 40 360 318 29 14 344 344 342 113 28 40 19 334 309 303 269 269 264 249 233 251 215 249 287 318 318 353 291 56 131 107 67 54 69 280 277 31 64 60 42 15 348 326 321 29 113 90 49 30 10 266 76 77 208 231
2 3 0 4 6 10 13 15 16 16 14 46 33 325 333 29 341 349 37 77 321 8 346 331 38 318 331 338 326 339 347 15 46 71 289 347 342 338 342 356 41 121 41 314 274 268 287 288 275 244 235 224 232 261 264 284 249 196 221 18 349 38 96 152 178 126 228 282 325 19 54 52 199 290 320 334 114 90 68 45 28 15 23 63 86 338 297
5 2 1 3 7 11 14 14 17 20 22 327 222 253 237 302 331 98 64 82 268 326 31 287 323 311 353 338 9 359 347 9 14 233 270 272 277 331 343 354 58 28 305 276 306 318 297 305 308 309 301 353 158 208 200 237 281 259 174 164 194 144 89 162 152 102 208 278 24 45 226 207 195 59 23 82 91 82 86 68 38 28 27 23 16 349 338
3 2 1 3 6 11 12 13 12 10 9 341 212 229 275 314 184 59 131 113 246 333 8 315 313 292 341 5 1 344 330 313 30 1 230 329 323 339 333 331 353 308 327 322 326 359 31 293 303 279 296 343 340 30 62 68 61 21 26 83 146 160 146 174 53 126 65 55 64 113 248 213 167 200 76 10 84 97 56 39 31 25 24 13 5 341 325
3 2 1 360 6 8 9 9 7 3 357 357 283 243 268 350 35 43 68 94 302 251 255 307 332 356 2 355 348 327 343 6 324 345 3 276 303 300 306 348 316 298 307 300 8 58 19 29 34 12 333 360 2 5 311 79 41 48 23 4 353 163 93 100 133 61 169 190 138 186 159 90 347 15 4 24 11 337 24 92 26 15 16 16 10 351 341
3 1 359 360 4 7 6 5 4 359 355 354 283 276 267 249 227 141 253 97 204 284 215 51 305 313 349 340 3 351 2 332 360 329 300 299 337 255 257 319 325 327 320 17 356 39 127 103 34 30 332 48 107 250 317 73 319 51 36 11 26 166 173 227 159 253 123 129 77 36 70 182 256 231 309 319 302 284 240 120 74 21 11 10 11 359 345
2 357 356 359 2 6 4 4 2 358 357 352 7 323 276 239 258 95 115 144 119 45 343 295 291 277 319 302 341 3 353 328 320 317 342 338 314 327 335 342 333 339 13 10 319 78 34 86 240 87 200 207 233 336 302 339 348 315 27 30 45 21 55 135 155 174 104 101 142 192 170 236 190 297 308 305 307 312 251 108 61 5 6 0 5 7 356
357 352 355 357 2 3 3 2 360 358 355 2 344 331 292 348 47 20 69 24 87 200 260 318 322 63 52 348 358 14 354 356 323 14 329 334 312 335 327 339 326 33 6 28 352 56 17 36 117 142 273 249 90 204 287 30 4 332 333 11 26 33 0 30 77 82 151 143 127 199 203 220 297 304 310 301 311 298 128 160 260 358 344 358 2 16 6
348 348 351 356 359 1 360 359 359 356 352 347 338 267 270 312 301 19 66 108 84 293 261 341 358 26 24 335 296 278 358 359 356 319 40 285 343 1 328 337 332 335 12 62 18 66 37 109 153 189 223 273 234 47 161 231 61 277 323 334 13 358 340 44 159 140 126 98 106 43 7 318 305 303 304 304 296 96 129 202 176 302 333 356 360 22 19
343 344 349 354 355 358 358 358 359 355 350 349 336 162 267 258 328 36 124 47 99 249 277 323 283 17 335 21 97 347 18 320 298 63 322 357 332 316 284 256 294 338 5 34 41 76 94 279 312 136 121 311 30 150 291 51 274 321 21 17 12 24 50 310 59 34 26 126 108 166 237 242 274 303 299 291 9 175 199 209 234 286 334 2 12 19 21
338 342 347 350 352 356 357 357 357 355 352 349 8 201 263 306 280 168 82 205 160 258 291 284 342 347 333 26 359 12 340 22 25 108 110 250 286 339 28 11 328 51 359 53 33 317 71 313 265 15 43 137 307 152 64 47 356 21 119 178 128 218 97 252 2 220 35 39 85 90 144 296 343 305 331 5 102 209 197 208 62 16 2 16 10 6 2
334 340 344 346 349 354 354 354 354 354 352 345 352 13 351 290 4 10 79 133 121 359 306 285 325 312 333 298 288 290 63 103 63 76 241 213 270 73 87 203 272 1 354 94 111 335 332 325 325 311 199 135 255 61 170 160 356 328 35 157 117 180 88 285 2 55 161 103 144 189 196 245 323 17 116 337 67 130 11 74 97 4 31 6 359 359 355
332 337 340 341 347 350 349 350 350 353 351 349 348 98 339 282 324 321 345 162 132 183 216 251 239 267 264 254 255 253 239 170 204 165 155 319 320 94 187 5 292 15 261 68 49 43 339 288 330 20 355 321 17 118 150 74 80 277 355 72 43 277 144 181 140 304 109 178 182 230 230 271 321 37 73 89 41 50 33 77 81 1 351 12 8 7 351
330 333 335 337 344 345 344 345 347 351 350 352 1 105 221 302 314 328 344 25 311 314 288 313 307 282 268 258 247 230 222 179 148 168 134 110 333 345 48 36 323 278 358 90 155 149 209 170 181 242 336 19 145 107 38 122 165 334 78 326 165 12 113 120 85 78 71 55 68 136 192 303 343 11 82 88 58 17 34 75 106 258 273 312 302 323 316
326 330 330 336 340 339 340 340 344 344 345 346 353 136 280 250 263 348 357 70 105 312 328 327 36 320 287 299 278 291 13 297 192 202 150 123 87 319 323 270 223 7 329 241 188 173 216 166 186 160 129 271 60 68 129 36 47 197 61 351 8 82 144 60 99 189 53 69 286 247 223 301 174 208 263 241 159 185 170 164 250 280 290 300 303 284 286
324 324 328 331 334 335 335 337 337 336 336 338 329 252 251 328 260 60 11 42 331 72 143 307 286 231 249 235 127 71 224 207 152 263 265 130 144 145 225 246 197 211 274 287 74 50 43 189 275 129 141 238 106 352 287 109 18 99 75 311 57 360 84 83 99 129 110 154 186 180 165 226 212 172 134 253 278 274 230 214 214 229 265 269 285 305 305
320 321 325 327 330 331 332 332 331 329 329 332 331 84 93 250 292 353 196 75 129 114 79 310 282 309 339 12 354 204 209 169 13 41 241 242 195 183 227 324 344 4 270 309 106 137 148 38 167 139 96 300 105 139 60 153 151 121 112 80 224 170 82 114 175 89 56 49 41 63 28 4 326 314 287 241 213 240 294 286 284 272 279 278 274 239 264
317 320 320 324 325 326 329 328 326 324 323 324 334 237 213 274 253 237 286 167 82 356 37 276 280 299 360 328 268 284 246 196 195 264 288 299 296 155 203 310 317 328 21 350 12 123 72 73 88 61 153 217 61 107 121 48 54 57 35 327 355 59 69 87 76 83 48 171 213 145 85 67 316 290 245 249 242 208 254 304 319 308 307 309 337 346 356
314 316 317 320 321 323 326 324 323 322 319 319 300 236 208 233 265 316 308 139 109 177 193 250 301 289 300 266 254 222 250 247 202 223 249 290 323 333 248 292 338 11 340 52 360 5 28 44 326 259 56 333 56 39 34 109 64 40 33 347 349 109 153 121 135 143 164 223 191 176 138 150 224 215 247 241 234 178 224 281 280 292 271 259 331 358 16
312 314 315 315 317 319 322 322 321 318 316 322 317 347 335 257 245 268 312 326 103 110 118 257 299 345 62 274 307 327 292 162 156 159 203 267 306 302 276 253 266 204 49 72 111 99 99 258 211 71 58 208 93 229 34 41 59 79 334 327 41 360 100 112 141 120 75 183 177 173 135 147 229 261 256 282 260 186 310 324 311 277 288 7 41 45 59
311 311 313 312 313 316 319 320 317 318 319 346 43 58 60 337 331 12 326 42 112 114 83 39 46 250 294 296 290 287 328 252 228 217 226 253 268 271 262 275 285 209 106 176 125 35 254 279 298 294 319 50 118 156 80 161 86 143 247 59 57 64 66 104 128 119 148 186 142 125 124 165 188 206 301 1 13 32 37 23 32 46 44 54 59 47 40
310 310 309 311 311 314 316 316 315 318 357 69 76 70 76 72 279 242 354 25 50 102 142 115 230 282 336 261 195 296 300 323 241 226 237 225 230 234 255 173 278 126 42 346 50 214 96 349 2 320 346 72 114 92 150 118 107 62 286 92 95 92 101 108 116 124 132 127 98 80 70 54 53 74 49 29 39 49 51 41 41 57 67 60 52 49 39
308 308 307 309 311 311 309 305 307 314 77 106 118 159 177 178 201 284 349 345 44 64 67 17 339 355 272 312 295 250 344 282 235 133 324 338 301 303 323 124 228 59 136 149 212 50 2 237 137 297 51 301 82 76 69 92 113 161 194 137 100 69 57 44 33 40 85 105 91 69 56 50 43 71 82 24 51 50 61 58 51 46 51 58 50 42 35
305 306 306 307 308 307 303 300 288 221 208 239 248 265 264 263 259 260 287 332 53 184 140 86 166 228 40 252 321 357 339 9 7 43 293 290 251 38 312 4 30 40 310 83 348 121 232 138 333 42 283 48 84 95 98 126 168 180 161 100 77 80 75 72 72 59 40 23 85 108 112 98 81 80 82 64 56 52 49 51 52 54 46 40 34 28 22
302 303 304 302 300 298 294 287 290 280 274 322 359 315 263 222 228 234 163 97 148 257 76 113 15 349 262 307 72 285 358 19 307 26 317 297 224 72 270 23 3 69 326 78 266 48 324 66 68 280 351 31 59 78 63 152 152 138 105 99 98 80 71 66 64 67 62 58 62 104 134 150 127 81 55 49 41 37 54 50 49 48 39 37 28 21 10
301 298 295 293 287 283 288 292 353 53 288 275 248 258 171 156 164 172 159 149 79 348 31 326 125 31 350 357 31 278 313 54 360 305 182 272 15 113 6 73 326 72 288 85 32 115 337 288 161 63 279 348 45 86 186 175 155 116 104 98 90 91 66 65 64 78 75 70 72 63 77 80 66 56 59 47 37 30 42 40 51 68 51 32 32 11 16
294 293 288 280 283 287 316 80 108 93 35 212 229 202 186 172 165 143 177 248 130 142 86 258 75 65 139 68 353 291 8 42 293 341 307 342 357 359 78 112 48 255 237 64 232 356 27 270 67 347 290 68 220 182 172 156 143 136 129 143 166 105 124 135 134 103 88 77 68 52 44 44 67 71 61 50 38 30 33 29 10 41 61 30 358 354 11
287 278 272 277 299 51 4 224 217 154 205 196 231 233 159 116 88 94 48 31 357 78 134 106 51 341 19 266 287 290 36 8 335 12 351 27 297 285 37 33 50 304 35 3 9 32 285 344 96 62 28 146 238 186 137 128 133 136 123 117 104 96 90 86 110 94 69 53 51 42 39 42 35 29 37 29 19 28 40 22 354 12 5 352 337 355 327
261 262 6 60 45 44 17 313 236 241 263 313 332 27 26 62 69 338 9 35 277 80 349 71 58 312 359 72 19 282 63 310 46 46 315 266 39 343 22 87 242 42 15 291 266 250 352 38 60 113 12 327 5 78 105 108 103 102 107 103 94 93 97 97 87 78 73 58 44 38 43 46 39 8 35 19 15 20 9 324 339 330 330 310 314 306 321
183 141 52 44 101 188 179 236 248 226 206 291 54 67 344 5 60 16 317 282 44 9 301 87 22 29 65 45 333 294 103 353 7 10 60 301 87 318 13 53 309 63 328 35 302 38 43 339 31 46 69 350 50 48 75 101 92 89 93 97 102 93 90 86 94 102 107 118 125 117 110 83 58 16 354 16 351 345 341 356 358 350 349 333 327 315 318
79 72 172 78 88 237 250 274 321 32 53 58 323 98 65 332 90 285 299 42 353 305 30 31 270 67 80 100 81 330 321 63 16 355 328 312 329 118 273 76 284 82 339 50 275 6 97 7 331 79 93 33 134 166 88 101 102 102 103 99 91 82 80 83 81 87 102 112 115 114 110 109 105 78 38 14 14 359 339 341 332 332 340 329 324 329 305
346 110 42 119 246 291 286 287 25 47 61 35 12 360 70 3 313 190 62 37 66 250 139 173 5 12 327 55 75 63 291 78 212 141 116 110 254 74 43 48 244 75 332 17 284 51 57 64 17 106 188 193 158 137 107 86 91 87 81 84 80 78 76 75 73 73 69 59 45 41 39 53 49 34 15 357 339 318 294 287 300 307 309 324 328 315 300
183 165 192 251 267 269 340 17 64 46 2 125 110 323 252 200 304 18 101 113 12 343 338 40 10 351 306 296 276 133 298 248 81 79 92 9 310 95 222 311 6 93 67 246 287 29 69 72 10 29 337 310 231 80 98 100 94 90 71 68 66 64 68 75 73 58 68 63 40 24 13 17 11 355 338 331 325 318 319 322 321 318 312 305 310 310 306
286 248 130 44 35 357 77 48 319 101 98 4 43 32 343 71 261 124 344 325 318 77 299 343 333 285 289 30 347 356 182 275 61 335 63 342 301 52 72 15 47 33 265 299 53 31 37 25 124 240 261 142 122 103 101 113 116 106 107 96 94 85 84 81 79 68 55 57 42 27 9 8 357 337 332 336 345 341 324 295 289 288 298 297 292 291 294
105 84 29 1 60 305 70 15 294 45 9 51 87 127 327 24 326 8 40 315 318 18 326 52 329 62 339 297 113 309 4 355 39 70 9 302 80 345 53 49 113 249 284 33 36 61 232 226 206 206 209 140 104 111 115 107 96 76 49 37 44 50 53 55 49 45 29 21 23 7 7 360 335 322 323 314 300 289 284 290 289 287 277 286 296 298 292
79 4 37 20 32 277 64 324 325 100 59 324 88 94 122 131 178 99 108 277 89 252 285 24 28 38 329 282 36 341 109 249 299 91 262 22 36 350 82 306 266 22 72 289 358 342 3 345 309 38 118 111 122 111 98 93 99 103 99 73 61 64 65 65 59 62 46 23 350 339 331 307 309 299 289 285 282 271 271 280 284 294 296 302 298 300 296
80 151 90 81 27 329 101 138 329 48 331 110 124 170 129 170 143 110 242 96 58 8 32 1 358 24 347 278 117 263 336 71 44 344 198 65 93 19 259 321 67 53 8 40 51 34 243 264 257 248 187 156 145 130 121 118 110 94 80 80 80 77 77 74 58 40 12 341 326 334 319 317 309 298 293 288 286 287 287 278 279 277 286 299 292 284 281
36 358 90 117 93 279 90 91 311 186 169 159 185 138 120 135 142 137 58 86 64 9 23 330 69 233 51 327 7 348 4 45 81 281 64 51 53 259 7 81 16 349 76 348 308 271 303 280 251 242 226 177 109 82 83 79 79 91 101 107 93 94 94 80 52 16 320 336 341 339 327 310 299 296 295 305 299 291 283 291 297 294 285 276 275 272 274
96 244 89 84 164 146 73 358 172 49 44 105 108 103 116 106 59 27 335 321 152 63 45 20 8 353 13 305 81 159 267 6 55 313 155 168 24 43 14 32 349 287 130 63 339 314 323 311 338 347 353 6 30 52 51 58 69 85 97 97 95 72 54 43 17 349 358 2 348 340 324 315 309 302 297 286 287 293 297 300 299 295 295 298 299 297 302
138 109 97 173 177 90 57 233 80 66 33 57 71 66 68 70 70 23 289 349 39 16 301 88 193 83 298 281 53 21 3 321 79 277 6 28 90 206 136 161 291 37 347 12 357 339 335 337 22 44 42 45 41 54 53 47 67 65 75 86 87 80 61 30 6 344 342 348 335 328 320 316 321 318 312 316 319 305 303 302 301 309 316 316 317 326 327
62 358 17 41 28 3 335 72 76 56 19 39 52 65 71 84 69 340 280 31 344 22 9 31 34 96 247 77 358 13 336 336 82 343 56 9 213 229 63 44 21 61 300 309 322 318 333 354 12 22 13 13 9 14 28 12 14 13 358 7 11 25 21 21 360 347 343 332 329 324 321 336 335 328 317 307 295 290 303 314 319 324 320 326 340 341 337
351 100 31 231 124 131 65 73 98 86 47 42 57 50 75 56 52 358 327 73 25 39 41 64 308 62 8 22 34 46 289 270 44 13 145 220 307 65 65 83 167 245 265 263 274 312 352 6 27 26 18 15 9 6 0 4 20 25 20 21 5 356 346 351 354 353 346 340 339 349 346 327 312 310 301 302 319 336 337 331 330 335 334 334 341 346 339
53 49 30 353 48 79 96 126 92 88 105 86 70 10 70 53 345 306 323 75 51 67 11 320 42 26 49 73 270 254 301 38 41 32 31 337 54 82 83 142 201 255 318 353 351 340 345 353 6 23 29 25 15 10 8 0 357 2 8 7 5 8 6 1 357 352 347 346 349 340 311 305 318 323 324 344 347 356 356 335 324 333 334 331 323 319 311